Shreveport, LA

8:57 AM CDT on April 23, 2018 (GMT -0500)
Shreveport Regional

Weather History for KSHV - January, 2014

Change the Weather History Date:

Monday, January 13, 2014

  Actual Average Record
Temperature  
Mean Temperature 56 °F 46 °F  
Max Temperature 69 °F 57 °F 79 °F (2007)
Min Temperature 43 °F 36 °F 11 °F (1918)
Degree Days  
Heating Degree Days 9 19  
Month to date heating degree days 280 247  
Since 1 July heating degree days 1250 1149  
Cooling Degree Days 0 0  
Month to date cooling degree days 0 0  
Year to date cooling degree days 0 0  
Growing Degree Days 6 (Base 50)    
Moisture  
Dew Point 45 °F    
Average Humidity 59    
Maximum Humidity 93    
Minimum Humidity 25    
Precipitation  
Precipitation 0.07 in 0.12 in 1.05 in (1921)
Month to date precipitation 0.82 1.65  
Year to date precipitation 0.82 1.65  
Snow  
Snow 0.00 in - - ()
Month to date snowfall 0.0  
Since 1 July snowfall T  
Snow Depth 0.00 in    
Sea Level Pressure  
Sea Level Pressure 29.90 in    
Wind  
Wind Speed 12 mph (SW)    
Max Wind Speed 24 mph    
Max Gust Speed 35 mph    
Visibility 10 miles    
Events Rain    
T = Trace of Precipitation, MM = Missing Value Source: NWS Daily Summary

Daily Weather History Graph

Daily Weather History Graph

Search for Another Location

Airport or City:

Astronomy

Jan. 13, 2014 Rise Set
Actual Time 7:17 AM CST 5:30 PM CST
Civil Twilight 6:50 AM CST 5:57 PM CST
Nautical Twilight 6:20 AM CST 6:27 PM CST
Astronomical Twilight 5:50 AM CST 6:57 PM CST
Moon 3:45 PM CST (1/13) 5:07 AM CST (1/13)
Length of Visible Light 11h 06m
Length of Day
10h 13m
Waxing Gibbous, 95% of the Moon is Illuminated
Jan 13
Waxing Gibbous
Jan 15
Full
Jan 23
Last Quarter
Jan 30
New
Feb 6
First Quarter

Hourly Weather History & Observations

Time (CST) Temp. Windchill Dew Point Humidity Pressure Visibility Wind Dir Wind Speed Gust Speed Precip Events Conditions
12:56 AM 59.0 °F - 51.1 °F 75% 29.83 in 10.0 mi South 24.2 mph - 0.00 in Rain Light Rain
1:56 AM 59.0 °F - 51.1 °F 75% 29.84 in 10.0 mi South 11.5 mph 21.9 mph 0.00 in   Overcast
2:56 AM 60.1 °F - 53.1 °F 78% 29.85 in 10.0 mi South 12.7 mph 20.7 mph N/A   Overcast
3:40 AM 59.0 °F - 55.4 °F 88% 29.84 in 10.0 mi South 10.4 mph - N/A   Overcast
3:56 AM 59.0 °F - 55.0 °F 87% 29.82 in 10.0 mi South 12.7 mph - N/A   Overcast
4:45 AM 59.0 °F - 55.4 °F 88% 29.83 in 10.0 mi South 12.7 mph 19.6 mph N/A   Overcast
4:56 AM 59.0 °F - 55.0 °F 87% 29.83 in 10.0 mi South 12.7 mph - N/A   Overcast
5:07 AM 59.0 °F - 55.4 °F 88% 29.83 in 10.0 mi South 11.5 mph - N/A   Overcast
5:56 AM 59.0 °F - 55.0 °F 87% 29.82 in 10.0 mi South 12.7 mph - N/A   Overcast
6:42 AM 59.0 °F - 55.4 °F 88% 29.82 in 10.0 mi SSW 8.1 mph - 0.07 in   Mostly Cloudy
6:56 AM 59.0 °F - 55.9 °F 90% 29.81 in 10.0 mi SSW 6.9 mph - 0.07 in   Overcast
7:54 AM 57.2 °F - 55.4 °F 94% 29.84 in 10.0 mi South 5.8 mph - N/A   Mostly Cloudy
7:56 AM 57.9 °F - 55.9 °F 93% 29.83 in 10.0 mi South 6.9 mph - N/A   Mostly Cloudy
8:56 AM 60.1 °F - 57.9 °F 93% 29.86 in 10.0 mi SSW 5.8 mph - N/A   Overcast
9:04 AM 60.8 °F - 57.2 °F 88% 29.86 in 10.0 mi South 5.8 mph - N/A   Overcast
9:45 AM 62.6 °F - 59.0 °F 88% 29.87 in 10.0 mi SSW 5.8 mph - N/A   Overcast
9:56 AM 62.1 °F - 59.0 °F 90% 29.87 in 10.0 mi SSW 6.9 mph - N/A   Overcast
10:13 AM 62.6 °F - 59.0 °F 88% 29.88 in 10.0 mi SW 8.1 mph - N/A   Overcast
10:56 AM 66.0 °F - 59.0 °F 78% 29.87 in 10.0 mi West 13.8 mph 17.3 mph N/A   Mostly Cloudy
11:56 AM 66.9 °F - 46.0 °F 47% 29.86 in 10.0 mi WNW 19.6 mph 25.3 mph N/A   Scattered Clouds
12:56 PM 66.9 °F - 37.9 °F 34% 29.87 in 10.0 mi NNW 17.3 mph - N/A   Partly Cloudy
1:56 PM 68.0 °F - 35.1 °F 30% 29.88 in 10.0 mi WNW 18.4 mph 24.2 mph N/A   Partly Cloudy
2:56 PM 66.9 °F - 30.9 °F 26% 29.89 in 10.0 mi NW 18.4 mph 26.5 mph N/A   Clear
3:56 PM 64.9 °F - 30.0 °F 27% 29.92 in 10.0 mi NW 16.1 mph 26.5 mph N/A   Clear
4:56 PM 62.1 °F - 27.0 °F 26% 29.94 in 10.0 mi WNW 15.0 mph 24.2 mph N/A   Clear
5:56 PM 57.9 °F - 27.0 °F 31% 29.96 in 10.0 mi WNW 11.5 mph - N/A   Clear
6:56 PM 55.0 °F - 27.0 °F 34% 29.99 in 10.0 mi WNW 9.2 mph - N/A   Clear
7:56 PM 52.0 °F - 28.0 °F 40% 30.02 in 10.0 mi West 8.1 mph - N/A   Clear
8:56 PM 51.1 °F - 28.9 °F 43% 30.04 in 10.0 mi West 9.2 mph - N/A   Clear
9:56 PM 48.9 °F - 28.9 °F 46% 30.05 in 10.0 mi West 8.1 mph - N/A   Clear
10:56 PM 46.9 °F - 28.0 °F 48% 30.06 in 10.0 mi West 5.8 mph - N/A   Clear
11:56 PM 44.1 °F 42.5 °F 28.9 °F 55% 30.07 in 10.0 mi WSW 3.5 mph - N/A   Clear